Ft Lauderdale, FL

8:48 PM EDT on April 24, 2018 (GMT -0400)
Fort Lauderdale-Hollywood International

Weather History for KFLL - October, 2014

Change the Weather History Date:

Friday, October 17, 2014

  Actual Average Record
Temperature  
Mean Temperature 77 °F 80 °F  
Max Temperature 86 °F 86 °F 92 °F (1976)
Min Temperature 68 °F 75 °F 55 °F (1913)
Degree Days  
Heating Degree Days 0 0  
Month to date heating degree days 0 0  
Since 1 July heating degree days 0 0  
Cooling Degree Days 12 16  
Month to date cooling degree days 297 283  
Year to date cooling degree days 4162 3995  
Growing Degree Days 26 (Base 50)    
Moisture  
Dew Point 59 °F    
Average Humidity 54    
Maximum Humidity 79    
Minimum Humidity 28    
Precipitation  
Precipitation 0.00 in 0.20 in 3.90 in (1944)
Month to date precipitation 1.45 4.47  
Year to date precipitation 55.42 54.13  
Snow  
Snow 0.00 in - - ()
Month to date snowfall 0.0  
Since 1 July snowfall 0.0  
Since 1 September snowfall 0.0  
Snow Depth 0.00 in    
Sea Level Pressure  
Sea Level Pressure 29.94 in    
Wind  
Wind Speed 5 mph (NW)    
Max Wind Speed 10 mph    
Max Gust Speed 14 mph    
Visibility 10 miles    
Events      
T = Trace of Precipitation, MM = Missing Value Source: NWS Daily Summary

Daily Weather History Graph

Daily Weather History Graph

Search for Another Location

Airport or City:

Astronomy

Oct. 17, 2014 Rise Set
Actual Time 7:20 AM EDT 6:50 PM EDT
Civil Twilight 6:57 AM EDT 7:14 PM EDT
Nautical Twilight 6:30 AM EDT 7:41 PM EDT
Astronomical Twilight 6:03 AM EDT 8:07 PM EDT
Moon 1:55 AM EDT (10/17) 3:07 PM EDT (10/17)
Length of Visible Light 12h 16m
Length of Day
11h 30m
Waning Crescent, 33% of the Moon is Illuminated
Oct 17
Waning Crescent
Oct 23
New
Oct 30
First Quarter
Nov 6
Full
Nov 14
Last Quarter

Hourly Weather History & Observations

Time (EDT) Temp. Heat Index Dew Point Humidity Pressure Visibility Wind Dir Wind Speed Gust Speed Precip Events Conditions
12:53 AM 73.0 °F - 64.0 °F 73% 29.92 in 10.0 mi NW 5.8 mph - N/A   Clear
1:53 AM 72.0 °F - 64.0 °F 76% 29.92 in 10.0 mi NW 3.5 mph - N/A   Clear
2:53 AM 71.1 °F - 64.0 °F 78% 29.91 in 10.0 mi NW 6.9 mph - N/A   Clear
3:53 AM 70.0 °F - 62.1 °F 76% 29.91 in 10.0 mi NW 8.1 mph - N/A   Clear
4:53 AM 69.1 °F - 61.0 °F 75% 29.91 in 10.0 mi NNW 5.8 mph - N/A   Clear
5:09 AM - - - N/A% - - NNW 6.9 mph - N/A   Partly Cloudy
5:53 AM 68.0 °F - 61.0 °F 78% 29.92 in 10.0 mi NW 6.9 mph - N/A   Clear
6:53 AM 68.0 °F - 61.0 °F 78% 29.94 in 10.0 mi NW 4.6 mph - N/A   Clear
7:53 AM 69.1 °F - 61.0 °F 75% 29.96 in 10.0 mi NW 4.6 mph - N/A   Clear
8:53 AM 73.0 °F - 62.1 °F 68% 29.97 in 10.0 mi NNW 4.6 mph - N/A   Clear
9:53 AM 75.9 °F - 60.1 °F 58% 29.99 in 10.0 mi NNW 8.1 mph - N/A   Clear
10:53 AM 79.0 °F - 60.1 °F 52% 29.98 in 10.0 mi WNW 5.8 mph - N/A   Clear
11:53 AM 81.0 °F 80.8 °F 55.9 °F 42% 29.98 in 10.0 mi NW 5.8 mph - N/A   Clear
12:53 PM 82.9 °F - 46.0 °F 27% 29.96 in 10.0 mi Calm Calm - N/A   Clear
1:53 PM 82.9 °F - 51.1 °F 33% 29.94 in 10.0 mi Calm Calm - N/A   Clear
2:53 PM 84.9 °F 83.3 °F 54.0 °F 34% 29.92 in 10.0 mi Variable 5.8 mph - N/A   Clear
3:53 PM 84.9 °F 83.6 °F 55.0 °F 36% 29.90 in 10.0 mi NW 4.6 mph - N/A   Clear
4:53 PM 84.0 °F 83.3 °F 57.0 °F 40% 29.91 in 10.0 mi East 6.9 mph - N/A   Clear
5:53 PM 81.0 °F 81.1 °F 57.9 °F 45% 29.91 in 10.0 mi ESE 8.1 mph - N/A   Clear
6:53 PM 79.0 °F - 57.9 °F 48% 29.92 in 10.0 mi ESE 5.8 mph - N/A   Clear
7:53 PM 79.0 °F - 57.9 °F 48% 29.93 in 10.0 mi SSE 3.5 mph - N/A   Clear
8:53 PM 78.1 °F - 60.1 °F 54% 29.94 in 10.0 mi South 4.6 mph - N/A   Clear
9:53 PM 78.1 °F - 62.1 °F 58% 29.95 in 10.0 mi Calm Calm - N/A   Clear
10:53 PM 77.0 °F - 61.0 °F 58% 29.96 in 10.0 mi SSW 3.5 mph - N/A   Clear
11:53 PM 73.9 °F - 63.0 °F 68% 29.96 in 10.0 mi Calm Calm - N/A   Clear